Tracking 19794 objects as of 21-Jul-2019
HD Live streaming from Space Station
objects crossing your sky now

COSMOS 394

Track COSMOS 394 now!
10-day predictions
COSMOS 394 is classified as:


NORAD ID: 4922
Int'l Code: 1971-010A
Perigee: 469.5 km
Apogee: 497.5 km
Inclination: 65.8 °
Period: 94.1 minutes
Semi major axis: 6854 km
RCS: 1.2944 m2 (large)
Launch date: February 9, 1971
Source: Commonwealth of Independent States (former USSR) (CIS)
Launch site: PLESETSK MISSILE AND SPACE COMPLEX (PKMTR)
aabbcc
Your satellite tracking list
Your tracking list is empty




NASA's NSSDC Master Catalog

Two Line Element Set (TLE):
1  4922U 71010A   19201.92834267 -.00000081 +00000-0 +45021-5 0  9997
2  4922 065.8252 057.9415 0020398 307.0133 052.9141 15.29826541670779
Source of the keplerian elements: AFSPC